,,Stat6,,Stat2,,Stat8,,Stat9,,Stat10,,Wind1,,Wind1,
time,status,PA1M_AVG,status,PR1M_SUM,status,RH1M_AVG,status,SR1M_AVG,status,TA1M_AVG,status,W1dAve1m,status,W1sAve1m,
2007-12-26, 00:00:00,VALID,917.465,VALID,0,VALID,100,VALID,-0.101885,VALID,18.4101,VALID,175,VALID,0.919141,
2007-12-26, 00:01:00,VALID,917.462,VALID,0,VALID,100,VALID,-0.0509425,VALID,18.4036,VALID,174,VALID,0.679688,
2007-12-26, 00:02:00,VALID,917.467,VALID,0,VALID,100,VALID,-0.0509425,VALID,18.3906,VALID,175,VALID,0.402158,
2007-12-26, 00:03:00,VALID,917.46,VALID,0,VALID,100,VALID,-0.0509425,VALID,18.3711,VALID,175,VALID,0.398256,
2007-12-26, 00:04:00,VALID,917.452,VALID,0,VALID,100,VALID,-0.0679233,VALID,18.3616,VALID,175,VALID,0.64375,
2007-12-26, 00:05:00,VALID,917.438,VALID,0,VALID,100,VALID,-0.101885,VALID,18.3517,VALID,175,VALID,0.464748,
2007-12-26, 00:06:00,VALID,917.425,VALID,0.2,VALID,100,VALID,-0.0849042,VALID,18.3519,VALID,175,VALID,0.261719,
2007-12-26, 00:07:00,VALID,917.398,VALID,0,VALID,100,VALID,-0.0339617,VALID,18.342,VALID,175,VALID,0.230729,
2007-12-26, 00:08:00,VALID,917.376,VALID,0,VALID,100,VALID,-0.0849042,VALID,18.3389,VALID,175,VALID,0.598366,
2007-12-26, 00:09:00,VALID,917.358,VALID,0,VALID,100,VALID,-0.101885,VALID,18.3257,VALID,175,VALID,0.607376,
2007-12-26, 00:10:00,VALID,917.34,VALID,0,VALID,100,VALID,-0.101885,VALID,18.3322,VALID,175,VALID,0.489583,
2007-12-26, 00:11:00,VALID,917.337,VALID,0,VALID,100,VALID,-0.0679233,VALID,18.3225,VALID,175,VALID,0.0517113,
2007-12-26, 00:12:00,VALID,917.325,VALID,0,VALID,100,VALID,-0.0849042,VALID,18.3128,VALID,175,VALID,0,
2007-12-26, 00:13:00,VALID,917.334,VALID,0,VALID,100,VALID,-0.0849042,VALID,18.3065,VALID,175,VALID,0.0580078,
2007-12-26, 00:14:00,VALID,917.332,VALID,0,VALID,100,VALID,-0.0849042,VALID,18.2931,VALID,175,VALID,0.47093,
2007-12-26, 00:15:00,VALID,917.328,VALID,0,VALID,100,VALID,-0.101885,VALID,18.3,VALID,175,VALID,0.207667,
2007-12-26, 00:16:00,VALID,917.303,VALID,0,VALID,100,VALID,-0.118866,VALID,18.3037,VALID,175,VALID,0.171875,
2007-12-26, 00:17:00,VALID,917.286,VALID,0,VALID,100,VALID,-0.0509425,VALID,18.2966,VALID,175,VALID,0,
2007-12-26, 00:18:00,VALID,917.269,VALID,0,VALID,100,VALID,-0.101885,VALID,18.3003,VALID,174,VALID,0.015625,
2007-12-26, 00:19:00,VALID,917.247,VALID,0,VALID,100,VALID,-0.0509425,VALID,18.2803,VALID,129,VALID,0.62173,
2007-12-26, 00:20:00,VALID,917.222,VALID,0,VALID,100,VALID,-0.101885,VALID,18.2609,VALID,117,VALID,0.708203,
2007-12-26, 00:21:00,VALID,917.192,VALID,0,VALID,100,VALID,-0.0679233,VALID,18.2444,VALID,104,VALID,0.755451,
2007-12-26, 00:22:00,VALID,917.17,VALID,0,VALID,100,VALID,-0.0339617,VALID,18.2447,VALID,111,VALID,0.620722,
2007-12-26, 00:23:00,VALID,917.158,VALID,0,VALID,100,VALID,-0.0679233,VALID,18.2417,VALID,115,VALID,0.584985,
2007-12-26, 00:24:00,VALID,917.152,VALID,0,VALID,100,VALID,-0.101885,VALID,18.2382,VALID,117,VALID,0.634511,
2007-12-26, 00:25:00,VALID,917.133,VALID,0,VALID,100,VALID,-0.118866,VALID,18.2349,VALID,117,VALID,0.509811,
2007-12-26, 00:26:00,VALID,917.128,VALID,0,VALID,100,VALID,-0.101885,VALID,18.2421,VALID,117,VALID,0.525484,
2007-12-26, 00:27:00,VALID,917.112,VALID,0,VALID,100,VALID,-0.0339617,VALID,18.2373,VALID,117,VALID,0.645531,
2007-12-26, 00:28:00,VALID,917.101,VALID,0,VALID,100,VALID,0,VALID,18.2505,VALID,117,VALID,0.553686,
2007-12-26, 00:29:00,VALID,917.09,VALID,0,VALID,100,VALID,0,VALID,18.2433,VALID,123,VALID,0.783668,
2007-12-26, 00:30:00,VALID,917.09,VALID,0,VALID,100,VALID,0.0509425,VALID,18.2597,VALID,137,VALID,0.569568,
2007-12-26, 00:31:00,VALID,917.077,VALID,0,VALID,100,VALID,0.0169808,VALID,18.2627,VALID,146,VALID,0.7117,
2007-12-26, 00:32:00,VALID,917.053,VALID,0,VALID,100,VALID,0,VALID,18.266,VALID,136,VALID,0.644531,
2007-12-26, 00:33:00,VALID,917.049,VALID,0,VALID,100,VALID,0.0169808,VALID,18.266,VALID,133,VALID,0.264583,
2007-12-26, 00:34:00,VALID,917.038,VALID,0.2,VALID,100,VALID,0.0169808,VALID,18.2757,VALID,133,VALID,0,
2007-12-26, 00:35:00,VALID,917.023,VALID,0,VALID,100,VALID,0.0679233,VALID,18.2725,VALID,133,VALID,0,
2007-12-26, 00:36:00,VALID,917.012,VALID,0,VALID,100,VALID,0.0339617,VALID,18.2822,VALID,134,VALID,0.162609,
2007-12-26, 00:37:00,VALID,917.015,VALID,0,VALID,100,VALID,0,VALID,18.2824,VALID,134,VALID,0,
2007-12-26, 00:38:00,VALID,917.021,VALID,0,VALID,100,VALID,0.0169808,VALID,18.2725,VALID,134,VALID,0.0012429,
2007-12-26, 00:39:00,VALID,916.993,VALID,0,VALID,100,VALID,0,VALID,18.2824,VALID,134,VALID,0,
2007-12-26, 00:40:00,VALID,916.983,VALID,0,VALID,100,VALID,0.0169808,VALID,18.2952,VALID,134,VALID,0,
2007-12-26, 00:41:00,VALID,916.984,VALID,0,VALID,100,VALID,0.0169808,VALID,18.2857,VALID,134,VALID,0,
2007-12-26, 00:42:00,VALID,916.978,VALID,0,VALID,100,VALID,-0.0169808,VALID,18.2757,VALID,134,VALID,0,
2007-12-26, 00:43:00,VALID,916.987,VALID,0,VALID,100,VALID,0.0339617,VALID,18.2729,VALID,134,VALID,0,
2007-12-26, 00:44:00,VALID,917.005,VALID,0,VALID,100,VALID,-0.0169808,VALID,18.2593,VALID,134,VALID,0,
2007-12-26, 00:45:00,VALID,917.016,VALID,0,VALID,100,VALID,0.0169808,VALID,18.2632,VALID,221,VALID,0.448361,
2007-12-26, 00:46:00,VALID,917.018,VALID,0,VALID,100,VALID,0.0169808,VALID,18.259,VALID,255,VALID,0.810082,
2007-12-26, 00:47:00,VALID,917.027,VALID,0,VALID,100,VALID,0,VALID,18.263,VALID,255,VALID,0.662574,
2007-12-26, 00:48:00,VALID,917.031,VALID,0,VALID,100,VALID,0,VALID,18.253,VALID,255,VALID,0.237749,
2007-12-26, 00:49:00,VALID,917.014,VALID,0,VALID,100,VALID,0.0169808,VALID,18.2565,VALID,255,VALID,0,
2007-12-26, 00:50:00,VALID,917.011,VALID,0,VALID,100,VALID,0,VALID,18.2597,VALID,255,VALID,0,
2007-12-26, 00:51:00,VALID,916.996,VALID,0,VALID,100,VALID,-0.0169808,VALID,18.2465,VALID,255,VALID,0,
2007-12-26, 00:52:00,VALID,916.99,VALID,0,VALID,100,VALID,0,VALID,18.2437,VALID,255,VALID,0,
2007-12-26, 00:53:00,VALID,916.971,VALID,0,VALID,100,VALID,0,VALID,18.2305,VALID,255,VALID,0,
2007-12-26, 00:54:00,VALID,916.966,VALID,0,VALID,100,VALID,0,VALID,18.2245,VALID,255,VALID,0,
2007-12-26, 00:55:00,VALID,916.954,VALID,0,VALID,100,VALID,-0.0169808,VALID,18.1981,VALID,254,VALID,0,
2007-12-26, 00:56:00,VALID,916.945,VALID,0,VALID,100,VALID,0,VALID,18.1944,VALID,254,VALID,0,
2007-12-26, 00:57:00,VALID,916.944,VALID,0,VALID,100,VALID,0,VALID,18.1983,VALID,254,VALID,0,
2007-12-26, 00:58:00,VALID,916.931,VALID,0,VALID,100,VALID,0,VALID,18.1752,VALID,254,VALID,0,
2007-12-26, 00:59:00,VALID,916.936,VALID,0,VALID,100,VALID,0,VALID,18.1687,VALID,254,VALID,0,
2007-12-26, 01:00:00,VALID,916.934,VALID,0,VALID,100,VALID,-0.0169808,VALID,18.1592,VALID,255,VALID,0,
2007-12-26, 01:01:00,VALID,916.934,VALID,0,VALID,100,VALID,-0.0339617,VALID,18.1659,VALID,255,VALID,0,
2007-12-26, 01:02:00,VALID,916.935,VALID,0,VALID,100,VALID,0,VALID,18.1657,VALID,255,VALID,0,
2007-12-26, 01:03:00,VALID,916.929,VALID,0,VALID,100,VALID,0,VALID,18.1562,VALID,255,VALID,0,
2007-12-26, 01:04:00,VALID,916.921,VALID,0,VALID,100,VALID,-0.0509425,VALID,18.1367,VALID,255,VALID,0,
2007-12-26, 01:05:00,VALID,916.921,VALID,0,VALID,100,VALID,-0.101885,VALID,18.1247,VALID,254,VALID,0,
2007-12-26, 01:06:00,VALID,916.909,VALID,0,VALID,100,VALID,-0.118866,VALID,18.1156,VALID,200,VALID,0.345117,
2007-12-26, 01:07:00,VALID,916.88,VALID,0,VALID,100,VALID,-0.101885,VALID,18.0925,VALID,186,VALID,0.485742,
2007-12-26, 01:08:00,VALID,916.873,VALID,0,VALID,100,VALID,-0.0849042,VALID,18.0825,VALID,150,VALID,0.71733,
2007-12-26, 01:09:00,VALID,916.855,VALID,0,VALID,100,VALID,-0.118866,VALID,18.0895,VALID,146,VALID,0.707386,
2007-12-26, 01:10:00,VALID,916.84,VALID,0,VALID,100,VALID,-0.0849042,VALID,18.0923,VALID,139,VALID,0.685594,
2007-12-26, 01:11:00,VALID,916.85,VALID,0,VALID,100,VALID,-0.101885,VALID,18.0962,VALID,130,VALID,0.46582,
2007-12-26, 01:12:00,VALID,916.852,VALID,0,VALID,100,VALID,-0.101885,VALID,18.0828,VALID,131,VALID,0,
2007-12-26, 01:13:00,VALID,916.86,VALID,0,VALID,100,VALID,-0.101885,VALID,18.0825,VALID,130,VALID,0,
2007-12-26, 01:14:00,VALID,916.841,VALID,0,VALID,100,VALID,-0.118866,VALID,18.0793,VALID,131,VALID,0,
2007-12-26, 01:15:00,VALID,916.84,VALID,0,VALID,100,VALID,-0.101885,VALID,18.0825,VALID,131,VALID,0,
2007-12-26, 01:16:00,VALID,916.82,VALID,0,VALID,100,VALID,-0.101885,VALID,18.089,VALID,131,VALID,0,
2007-12-26, 01:17:00,VALID,916.806,VALID,0,VALID,100,VALID,-0.101885,VALID,18.0957,VALID,131,VALID,0,
2007-12-26, 01:18:00,VALID,916.779,VALID,0,VALID,100,VALID,-0.118866,VALID,18.1055,VALID,130,VALID,0,
2007-12-26, 01:19:00,VALID,916.781,VALID,0,VALID,100,VALID,-0.101885,VALID,18.1052,VALID,130,VALID,0,
2007-12-26, 01:20:00,VALID,916.76,VALID,0,VALID,100,VALID,-0.101885,VALID,18.0925,VALID,124,VALID,0.555489,
2007-12-26, 01:21:00,VALID,916.757,VALID,0,VALID,100,VALID,-0.101885,VALID,18.0895,VALID,119,VALID,0.80506,
2007-12-26, 01:22:00,VALID,916.758,VALID,0,VALID,100,VALID,-0.101885,VALID,18.076,VALID,119,VALID,0.679008,
2007-12-26, 01:23:00,VALID,916.761,VALID,0,VALID,100,VALID,-0.118866,VALID,18.0698,VALID,119,VALID,0.48473,
2007-12-26, 01:24:00,VALID,916.767,VALID,0,VALID,100,VALID,-0.118866,VALID,18.0668,VALID,119,VALID,0.512091,
2007-12-26, 01:25:00,VALID,916.763,VALID,0,VALID,100,VALID,-0.101885,VALID,18.0665,VALID,120,VALID,0.303354,
2007-12-26, 01:26:00,VALID,916.759,VALID,0,VALID,100,VALID,-0.118866,VALID,18.0538,VALID,122,VALID,0.597957,
2007-12-26, 01:27:00,VALID,916.739,VALID,0,VALID,100,VALID,-0.0679233,VALID,18.0438,VALID,122,VALID,0.54859,
2007-12-26, 01:28:00,VALID,916.727,VALID,0,VALID,100,VALID,-0.0679233,VALID,18.0339,VALID,128,VALID,0.53218,
2007-12-26, 01:29:00,VALID,916.693,VALID,0,VALID,100,VALID,-0.0679233,VALID,18.0242,VALID,120,VALID,0.743359,
2007-12-26, 01:30:00,VALID,916.667,VALID,0,VALID,100,VALID,-0.0509425,VALID,18.0112,VALID,109,VALID,0.679116,
2007-12-26, 01:31:00,VALID,916.638,VALID,0,VALID,100,VALID,-0.101885,VALID,18.0047,VALID,103,VALID,0.612393,
2007-12-26, 01:32:00,VALID,916.612,VALID,0,VALID,100,VALID,-0.0509425,VALID,17.9887,VALID,103,VALID,0.638077,
2007-12-26, 01:33:00,VALID,916.595,VALID,0,VALID,100,VALID,-0.0339617,VALID,17.9818,VALID,114,VALID,0.773801,
2007-12-26, 01:34:00,VALID,916.568,VALID,0,VALID,100,VALID,-0.0509425,VALID,17.9755,VALID,119,VALID,0.814453,
2007-12-26, 01:35:00,VALID,916.555,VALID,0,VALID,100,VALID,-0.0849042,VALID,17.9625,VALID,122,VALID,0.869496,
2007-12-26, 01:36:00,VALID,916.547,VALID,0,VALID,100,VALID,-0.0849042,VALID,17.9528,VALID,111,VALID,1.15176,
2007-12-26, 01:37:00,VALID,916.529,VALID,0,VALID,100,VALID,-0.0849042,VALID,17.9593,VALID,109,VALID,0.976385,
2007-12-26, 01:38:00,VALID,916.521,VALID,0,VALID,100,VALID,-0.0849042,VALID,17.9431,VALID,118,VALID,1.02664,
2007-12-26, 01:39:00,VALID,916.518,VALID,0,VALID,100,VALID,-0.101885,VALID,17.9466,VALID,125,VALID,1.00556,
2007-12-26, 01:40:00,VALID,916.502,VALID,0,VALID,100,VALID,-0.0339617,VALID,17.9431,VALID,126,VALID,1.16824,
2007-12-26, 01:41:00,VALID,916.502,VALID,0,VALID,100,VALID,-0.0679233,VALID,17.9558,VALID,127,VALID,1.43677,
2007-12-26, 01:42:00,VALID,916.467,VALID,0,VALID,100,VALID,-0.0169808,VALID,17.9716,VALID,117,VALID,1.26727,
2007-12-26, 01:43:00,VALID,916.445,VALID,0,VALID,100,VALID,0.0339617,VALID,17.9711,VALID,128,VALID,1.1139,
2007-12-26, 01:44:00,VALID,916.421,VALID,0,VALID,100,VALID,0.0169808,VALID,17.9677,VALID,127,VALID,1.15341,
2007-12-26, 01:45:00,VALID,916.373,VALID,0,VALID,100,VALID,-0.0169808,VALID,17.9612,VALID,122,VALID,1.38636,
2007-12-26, 01:46:00,VALID,916.348,VALID,0,VALID,100,VALID,-0.0339617,VALID,17.9883,VALID,120,VALID,1.27544,
2007-12-26, 01:47:00,VALID,916.312,VALID,0,VALID,100,VALID,0,VALID,17.9746,VALID,123,VALID,1.16094,
2007-12-26, 01:48:00,VALID,916.281,VALID,0,VALID,100,VALID,0,VALID,17.9809,VALID,119,VALID,1.00454,
2007-12-26, 01:49:00,VALID,916.254,VALID,0,VALID,100,VALID,0,VALID,17.9776,VALID,118,VALID,0.951637,
2007-12-26, 01:50:00,VALID,916.233,VALID,0,VALID,100,VALID,0.0339617,VALID,17.9874,VALID,120,VALID,1.07236,
2007-12-26, 01:51:00,VALID,916.204,VALID,0,VALID,100,VALID,0.0169808,VALID,17.9774,VALID,114,VALID,1.04397,
2007-12-26, 01:52:00,VALID,916.183,VALID,0,VALID,100,VALID,0.0509425,VALID,17.9906,VALID,103,VALID,1.01829,
2007-12-26, 01:53:00,VALID,916.143,VALID,0,VALID,100,VALID,0.0169808,VALID,17.9871,VALID,112,VALID,1.30959,
2007-12-26, 01:54:00,VALID,916.125,VALID,0,VALID,100,VALID,0,VALID,17.9941,VALID,102,VALID,1.10511,
2007-12-26, 01:55:00,VALID,916.114,VALID,0,VALID,100,VALID,0,VALID,17.9806,VALID,109,VALID,0.623757,
2007-12-26, 01:56:00,VALID,916.108,VALID,0,VALID,100,VALID,-0.0509425,VALID,17.991,VALID,105,VALID,1.05677,
2007-12-26, 01:57:00,VALID,916.097,VALID,0,VALID,100,VALID,0,VALID,17.9841,VALID,117,VALID,1.43945,
2007-12-26, 01:58:00,VALID,916.104,VALID,0,VALID,100,VALID,0.0169808,VALID,18.0001,VALID,124,VALID,1.2141,
2007-12-26, 01:59:00,VALID,916.094,VALID,0,VALID,100,VALID,0.0339617,VALID,18.01,VALID,136,VALID,0.999826,
2007-12-26, 02:00:00,VALID,916.087,VALID,0,VALID,100,VALID,0.0509425,VALID,18.0133,VALID,132,VALID,1.02716,
2007-12-26, 02:01:00,VALID,916.087,VALID,0,VALID,100,VALID,0,VALID,18.01,VALID,135,VALID,1.22129,
2007-12-26, 02:02:00,VALID,916.08,VALID,0,VALID,100,VALID,0,VALID,18.0103,VALID,136,VALID,1.20858,
2007-12-26, 02:03:00,VALID,916.071,VALID,0,VALID,100,VALID,0.0169808,VALID,18.0165,VALID,138,VALID,1.52772,
2007-12-26, 02:04:00,VALID,916.063,VALID,0,VALID,100,VALID,0.0169808,VALID,18.0228,VALID,131,VALID,1.10488,
2007-12-26, 02:05:00,VALID,916.036,VALID,0,VALID,100,VALID,0.0169808,VALID,18.0327,VALID,129,VALID,1.07404,
2007-12-26, 02:06:00,VALID,916.025,VALID,0,VALID,100,VALID,0.0169808,VALID,18.0293,VALID,120,VALID,0.894259,
2007-12-26, 02:07:00,VALID,916.01,VALID,0,VALID,100,VALID,0,VALID,18.0332,VALID,112,VALID,0.835565,
2007-12-26, 02:08:00,VALID,915.987,VALID,0,VALID,100,VALID,0,VALID,18.0297,VALID,110,VALID,0.935007,
2007-12-26, 02:09:00,VALID,915.961,VALID,0,VALID,100,VALID,0.0339617,VALID,18.026,VALID,110,VALID,0.907924,
2007-12-26, 02:10:00,VALID,915.956,VALID,0,VALID,100,VALID,0.0169808,VALID,18.0263,VALID,125,VALID,0.787348,
2007-12-26, 02:11:00,VALID,915.937,VALID,0,VALID,100,VALID,0.0169808,VALID,18.02,VALID,132,VALID,0.971875,
2007-12-26, 02:12:00,VALID,915.919,VALID,0,VALID,100,VALID,0,VALID,18.0327,VALID,140,VALID,0.929506,
2007-12-26, 02:13:00,VALID,915.902,VALID,0,VALID,100,VALID,0.0339617,VALID,18.0293,VALID,131,VALID,1.16997,
2007-12-26, 02:14:00,VALID,915.888,VALID,0,VALID,100,VALID,0.0339617,VALID,18.0422,VALID,128,VALID,1.15225,
2007-12-26, 02:15:00,VALID,915.893,VALID,0,VALID,100,VALID,0,VALID,18.0457,VALID,123,VALID,0.826172,
2007-12-26, 02:16:00,VALID,915.864,VALID,0,VALID,100,VALID,0.0169808,VALID,18.052,VALID,115,VALID,1.10374,
2007-12-26, 02:17:00,VALID,915.848,VALID,0,VALID,100,VALID,0,VALID,18.0686,VALID,112,VALID,1.0947,
2007-12-26, 02:18:00,VALID,915.835,VALID,0,VALID,100,VALID,0,VALID,18.0781,VALID,112,VALID,0.830611,
2007-12-26, 02:19:00,VALID,915.828,VALID,0,VALID,100,VALID,0.0509425,VALID,18.0749,VALID,120,VALID,0.694754,
2007-12-26, 02:20:00,VALID,915.825,VALID,0,VALID,100,VALID,0.0339617,VALID,18.0812,VALID,133,VALID,1.01358,
2007-12-26, 02:21:00,VALID,915.804,VALID,0,VALID,100,VALID,0.0169808,VALID,18.1006,VALID,139,VALID,0.902435,
2007-12-26, 02:22:00,VALID,915.806,VALID,0,VALID,100,VALID,0.0169808,VALID,18.1136,VALID,137,VALID,1.02552,
2007-12-26, 02:23:00,VALID,915.821,VALID,0,VALID,100,VALID,0.0339617,VALID,18.1136,VALID,140,VALID,0.923633,
2007-12-26, 02:24:00,VALID,915.809,VALID,0,VALID,100,VALID,0.0509425,VALID,18.1168,VALID,140,VALID,0.825218,
2007-12-26, 02:25:00,VALID,915.806,VALID,0,VALID,100,VALID,0.0169808,VALID,18.1071,VALID,148,VALID,0.653125,
2007-12-26, 02:26:00,VALID,915.801,VALID,0,VALID,100,VALID,0,VALID,18.0974,VALID,150,VALID,0.838542,
2007-12-26, 02:27:00,VALID,915.813,VALID,0,VALID,100,VALID,0.0169808,VALID,18.0941,VALID,148,VALID,0.786776,
2007-12-26, 02:28:00,VALID,915.82,VALID,0,VALID,100,VALID,0,VALID,18.0779,VALID,148,VALID,0.685826,
2007-12-26, 02:29:00,VALID,915.815,VALID,0,VALID,100,VALID,0.0169808,VALID,18.0684,VALID,153,VALID,0.973366,
2007-12-26, 02:30:00,VALID,915.824,VALID,0,VALID,100,VALID,0,VALID,18.0617,VALID,151,VALID,0.95957,
2007-12-26, 02:31:00,VALID,915.824,VALID,0,VALID,100,VALID,0,VALID,18.0619,VALID,150,VALID,0.929315,
2007-12-26, 02:32:00,VALID,915.832,VALID,0,VALID,100,VALID,-0.0169808,VALID,18.0619,VALID,146,VALID,0.925409,
2007-12-26, 02:33:00,VALID,915.845,VALID,0,VALID,100,VALID,0,VALID,18.0552,VALID,146,VALID,0.832031,
2007-12-26, 02:34:00,VALID,915.831,VALID,0,VALID,100,VALID,0,VALID,18.0554,VALID,151,VALID,0.845749,
2007-12-26, 02:35:00,VALID,915.847,VALID,0,VALID,100,VALID,0,VALID,18.0585,VALID,156,VALID,0.700267,
2007-12-26, 02:36:00,VALID,915.842,VALID,0,VALID,100,VALID,0,VALID,18.0585,VALID,161,VALID,0.710243,
2007-12-26, 02:37:00,VALID,915.82,VALID,0,VALID,100,VALID,-0.0169808,VALID,18.0649,VALID,161,VALID,0.868823,
2007-12-26, 02:38:00,VALID,915.825,VALID,0,VALID,100,VALID,0.0339617,VALID,18.0717,VALID,170,VALID,0.634448,
2007-12-26, 02:39:00,VALID,915.814,VALID,0,VALID,100,VALID,-0.0339617,VALID,18.0714,VALID,152,VALID,0.984375,
2007-12-26, 02:40:00,VALID,915.822,VALID,0,VALID,100,VALID,0,VALID,18.0684,VALID,152,VALID,0.894448,
2007-12-26, 02:41:00,VALID,915.822,VALID,0,VALID,100,VALID,0,VALID,18.052,VALID,150,VALID,0.782584,
2007-12-26, 02:42:00,VALID,915.815,VALID,0,VALID,100,VALID,-0.0679233,VALID,18.0561,VALID,139,VALID,0.41806,
2007-12-26, 02:43:00,VALID,915.793,VALID,0,VALID,100,VALID,-0.0849042,VALID,18.064,VALID,131,VALID,0.793899,
2007-12-26, 02:44:00,VALID,915.785,VALID,0,VALID,100,VALID,-0.118866,VALID,18.0434,VALID,126,VALID,0.491667,
2007-12-26, 02:45:00,VALID,915.769,VALID,0,VALID,100,VALID,-0.101885,VALID,18.0438,VALID,126,VALID,0.698552,
2007-12-26, 02:46:00,VALID,915.75,VALID,0,VALID,100,VALID,-0.0849042,VALID,18.0573,VALID,122,VALID,0.766992,
2007-12-26, 02:47:00,VALID,915.744,VALID,0,VALID,100,VALID,-0.101885,VALID,18.0309,VALID,123,VALID,0.458891,
2007-12-26, 02:48:00,VALID,915.72,VALID,0,VALID,100,VALID,-0.101885,VALID,18.0274,VALID,122,VALID,0.681641,
2007-12-26, 02:49:00,VALID,915.706,VALID,0,VALID,100,VALID,-0.135847,VALID,18.0306,VALID,121,VALID,0.714939,
2007-12-26, 02:50:00,VALID,915.669,VALID,0,VALID,100,VALID,-0.118866,VALID,18.0339,VALID,115,VALID,0.940104,
2007-12-26, 02:51:00,VALID,915.662,VALID,0,VALID,100,VALID,-0.0849042,VALID,18.057,VALID,113,VALID,0.664621,
2007-12-26, 02:52:00,VALID,915.644,VALID,0,VALID,100,VALID,-0.0849042,VALID,18.0566,VALID,114,VALID,0.860119,
2007-12-26, 02:53:00,VALID,915.642,VALID,0,VALID,100,VALID,-0.101885,VALID,18.0628,VALID,115,VALID,0.870561,
2007-12-26, 02:54:00,VALID,915.632,VALID,0,VALID,100,VALID,-0.0849042,VALID,18.0598,VALID,107,VALID,0.335029,
2007-12-26, 02:55:00,VALID,915.626,VALID,0,VALID,100,VALID,-0.101885,VALID,18.0533,VALID,104,VALID,0,
2007-12-26, 02:56:00,VALID,915.621,VALID,0,VALID,100,VALID,-0.152827,VALID,18.0404,VALID,98,VALID,0,
2007-12-26, 02:57:00,VALID,915.609,VALID,0,VALID,100,VALID,-0.101885,VALID,18.0309,VALID,98,VALID,0,
2007-12-26, 02:58:00,VALID,915.609,VALID,0,VALID,100,VALID,-0.0679233,VALID,18.0174,VALID,101,VALID,0.292878,
2007-12-26, 02:59:00,VALID,915.604,VALID,0,VALID,100,VALID,-0.101885,VALID,18.0147,VALID,109,VALID,0.567472,
2007-12-26, 03:00:00,VALID,915.608,VALID,0,VALID,100,VALID,-0.101885,VALID,18.0045,VALID,116,VALID,0.442294,
2007-12-26, 03:01:00,VALID,915.634,VALID,0,VALID,100,VALID,-0.101885,VALID,18.0017,VALID,117,VALID,0.121094,
2007-12-26, 03:02:00,VALID,915.628,VALID,0,VALID,100,VALID,-0.101885,VALID,18.0052,VALID,117,VALID,0,
2007-12-26, 03:03:00,VALID,915.626,VALID,0,VALID,100,VALID,-0.0339617,VALID,17.9945,VALID,117,VALID,0,
2007-12-26, 03:04:00,VALID,915.616,VALID,0,VALID,100,VALID,-0.0849042,VALID,17.9917,VALID,117,VALID,0,
2007-12-26, 03:05:00,VALID,915.613,VALID,0,VALID,100,VALID,-0.0679233,VALID,17.9822,VALID,117,VALID,0,
2007-12-26, 03:06:00,VALID,915.611,VALID,0,VALID,100,VALID,-0.118866,VALID,17.9463,VALID,117,VALID,0,
2007-12-26, 03:07:00,VALID,915.588,VALID,0,VALID,100,VALID,-0.0679233,VALID,17.9463,VALID,117,VALID,0.396577,
2007-12-26, 03:08:00,VALID,915.596,VALID,0,VALID,100,VALID,-0.0509425,VALID,17.9364,VALID,117,VALID,0.641426,
2007-12-26, 03:09:00,VALID,915.583,VALID,0,VALID,100,VALID,-0.0849042,VALID,17.9267,VALID,117,VALID,0.542333,
2007-12-26, 03:10:00,VALID,915.564,VALID,0,VALID,100,VALID,-0.0849042,VALID,17.9301,VALID,117,VALID,0.438643,
2007-12-26, 03:11:00,VALID,915.569,VALID,0,VALID,100,VALID,-0.0849042,VALID,17.9299,VALID,117,VALID,0.446243,
2007-12-26, 03:12:00,VALID,915.547,VALID,0,VALID,100,VALID,-0.0849042,VALID,17.9389,VALID,117,VALID,0.0706845,
2007-12-26, 03:13:00,VALID,915.539,VALID,0,VALID,100,VALID,-0.0849042,VALID,17.9364,VALID,117,VALID,0,
2007-12-26, 03:14:00,VALID,915.524,VALID,0,VALID,100,VALID,-0.118866,VALID,17.9269,VALID,117,VALID,0.0837766,
2007-12-26, 03:15:00,VALID,915.522,VALID,0,VALID,100,VALID,-0.0849042,VALID,17.9301,VALID,117,VALID,0.56108,
2007-12-26, 03:16:00,VALID,915.5,VALID,0,VALID,100,VALID,-0.0679233,VALID,17.9334,VALID,117,VALID,0.74668,
2007-12-26, 03:17:00,VALID,915.497,VALID,0,VALID,100,VALID,-0.0849042,VALID,17.9267,VALID,115,VALID,0.576219,
2007-12-26, 03:18:00,VALID,915.493,VALID,0,VALID,100,VALID,-0.0849042,VALID,17.9197,VALID,114,VALID,0.568892,
2007-12-26, 03:19:00,VALID,915.503,VALID,0,VALID,100,VALID,-0.0679233,VALID,17.9334,VALID,113,VALID,0.157493,
2007-12-26, 03:20:00,VALID,915.5,VALID,0,VALID,100,VALID,-0.0509425,VALID,17.9334,VALID,113,VALID,0.330788,
2007-12-26, 03:21:00,VALID,915.497,VALID,0,VALID,100,VALID,-0.101885,VALID,17.9301,VALID,113,VALID,0.254002,
2007-12-26, 03:22:00,VALID,915.487,VALID,0,VALID,100,VALID,-0.0849042,VALID,17.9202,VALID,113,VALID,0.0501143,
2007-12-26, 03:23:00,VALID,915.482,VALID,0,VALID,100,VALID,-0.0679233,VALID,17.9139,VALID,113,VALID,0.0284598,
2007-12-26, 03:24:00,VALID,915.48,VALID,0,VALID,100,VALID,-0.0849042,VALID,17.891,VALID,113,VALID,0,
2007-12-26, 03:25:00,VALID,915.477,VALID,0,VALID,100,VALID,-0.118866,VALID,17.875,VALID,113,VALID,0,
2007-12-26, 03:26:00,VALID,915.475,VALID,0,VALID,100,VALID,-0.101885,VALID,17.8687,VALID,113,VALID,0,
2007-12-26, 03:27:00,VALID,915.479,VALID,0,VALID,100,VALID,-0.0169808,VALID,17.8676,VALID,113,VALID,0,
2007-12-26, 03:28:00,VALID,915.473,VALID,0,VALID,100,VALID,0,VALID,17.8769,VALID,113,VALID,0,
2007-12-26, 03:29:00,VALID,915.459,VALID,0,VALID,100,VALID,0,VALID,17.8769,VALID,113,VALID,0,
2007-12-26, 03:30:00,VALID,915.46,VALID,0,VALID,100,VALID,0.0169808,VALID,17.8672,VALID,113,VALID,0,
2007-12-26, 03:31:00,VALID,915.453,VALID,0,VALID,100,VALID,0,VALID,17.8542,VALID,113,VALID,0,
2007-12-26, 03:32:00,VALID,915.449,VALID,0,VALID,100,VALID,0,VALID,17.8313,VALID,113,VALID,0,
2007-12-26, 03:33:00,VALID,915.455,VALID,0,VALID,100,VALID,0,VALID,17.8151,VALID,113,VALID,0.17223,
2007-12-26, 03:34:00,VALID,915.454,VALID,0,VALID,100,VALID,0,VALID,17.8056,VALID,111,VALID,0.420422,
2007-12-26, 03:35:00,VALID,915.449,VALID,0,VALID,100,VALID,0,VALID,17.8282,VALID,99,VALID,0.63157,
2007-12-26, 03:36:00,VALID,915.455,VALID,0,VALID,100,VALID,0.0169808,VALID,17.8282,VALID,98,VALID,0.612038,
2007-12-26, 03:37:00,VALID,915.468,VALID,0,VALID,100,VALID,0.0169808,VALID,17.8317,VALID,98,VALID,0.389137,
2007-12-26, 03:38:00,VALID,915.476,VALID,0,VALID,100,VALID,0.0169808,VALID,17.8215,VALID,98,VALID,0.498326,
2007-12-26, 03:39:00,VALID,915.468,VALID,0,VALID,100,VALID,0.0169808,VALID,17.8213,VALID,95,VALID,0.0418403,
2007-12-26, 03:40:00,VALID,915.474,VALID,0,VALID,100,VALID,0.0169808,VALID,17.8278,VALID,93,VALID,0.107922,
2007-12-26, 03:41:00,VALID,915.467,VALID,0,VALID,100,VALID,0,VALID,17.8445,VALID,93,VALID,0.327398,
2007-12-26, 03:42:00,VALID,915.488,VALID,0,VALID,100,VALID,-0.0169808,VALID,17.8313,VALID,93,VALID,0,